Location: Beaurecueil
(43.5122°N, 5.5450°E)
Time: 14:13:23
(UTC+00:00)

Ariane Rocket - Pass Details

Date: 18 September 2020
Orbit: 760 x 770 km, 98.7° (Epoch: 30 October)

Event Time Altitude Azimuth Distance (km) Brightness Sun altitude
Exits shadow 18:09:44 - 121° (ESE) 2,788 5.3 -5.9°
Reaches altitude 10° 18:11:15 10° 112° (ESE) 2,297 4.8 -6.1°
Maximum altitude 18:15:04 22° 63° (ENE) 1,623 4.3 -6.8°
Drops below altitude 10° 18:18:55 10° 13° (NNE) 2,312 5.5 -7.5°
Sets 18:21:40 0° 359° (N) 3,245 6.4 -8.0°
